This demonstration page uses our WeatherBlox Daily Observations layout. Learn more.

39.92423, -83.80882

Hourly Observations for September 20, 2017

Temp ( °F °C ) Dew Point ( °F °C ) Humidity (%) Winds ( mph kmh ) Pressure ( in mb ) Visibility ( mi km ) Precip ( " mm )
12:56 am 00:56 Clear 66 18.9 65 18.3 96 96 S 3 6 29.94 1014 10 16.09344 0 0
1:56 am 01:56 Clear 64 17.8 63 17.2 96 96 S 3 6 29.97 1015 7 11.265408 0 0
2:43 am 02:43 Clear with Mist and Fog 63 17 63 17 100 100 SW 5 7 29.97 1015 2 3.218688 0 0
2:53 am 02:53 Clear with Mist and Fog 64 18 63 17 94 94 SSW 3 6 29.94 1014 5 8.04672 0 0
2:56 am 02:56 Clear with Mist and Fog 64 17.8 64 17.8 100 100 SSW 3 6 29.97 1015 5 8.04672 0 0
3:56 am 03:56 Clear with Mist and Fog 63 17.2 63 17.2 100 100 Calm 29.94 1014 3 4.828032 0 0
4:02 am 04:02 Mostly Cloudy with Mist and Fog 63 17 63 17 100 100 Calm 29.97 1015 1 1.609344 0 0
4:05 am 04:05 Mostly Cloudy with Fog 63 17 61 16 94 94 Calm 29.97 1015 0.5 0.804672 0 0
4:38 am 04:38 Mostly Clear with Mist and Fog 63 17 63 17 100 100 Calm 29.97 1015 1.25 2.01168 0 0
4:52 am 04:52 Mostly Cloudy with Mist and Fog 61 16 61 16 100 100 Calm 29.97 1015 0.75 1.207008 0 0
4:56 am 04:56 Clear with Fog 62 16.7 61 16.1 96 96 Calm 29.94 1014 0.5 0.804672 0 0
5:05 am 05:05 Mostly Cloudy with Fog 61 16 61 16 100 100 Calm 29.97 1015 0.25 0.402336 0 0
5:22 am 05:22 Mostly Cloudy with Fog 59 15 59 15 100 100 ESE 5 7 29.97 1015 0.25 0.402336 0 0
5:36 am 05:36 Mostly Cloudy with Fog 61 16 61 16 100 100 Calm 30 1016 0.25 0.402336 0 0
5:56 am 05:56 Cloudy with Fog 59 15 59 15 100 100 Calm 29.97 1015 0.25 0.402336 0 0
6:56 am 06:56 Cloudy with Fog 59 15 59 15 100 100 Calm 30 1016 0.25 0.402336 0 0
7:56 am 07:56 Cloudy with Fog 60 15.6 60 15.6 100 100 Calm 30.03 1017 0 0 0 0
8:38 am 08:38 Cloudy with Mist and Fog 63 17 63 17 100 100 Calm 30.06 1018 0.75 1.207008 0 0
8:42 am 08:42 Cloudy with Mist and Fog 63 17 63 17 100 100 Calm 30.06 1018 1.25 2.01168 0 0
8:48 am 08:48 Cloudy with Mist and Fog 63 17 63 17 100 100 Calm 30.06 1018 3 4.828032 0 0
8:56 am 08:56 Cloudy with Mist and Fog 63 17.2 63 17.2 100 100 Calm 30.03 1017 4 6.437376 0 0
9:51 am 09:51 Partly Cloudy with Mist and Fog 68 20 68 20 100 100 SW 5 7 30.03 1017 5 8.04672 0 0
9:56 am 09:56 Partly Cloudy 68 20 68 20 100 100 SW 5 7 30.03 1017 7 11.265408 0 0
10:56 am 10:56 Sunny 72 22.2 67 19.4 84 84 SW 6 9 30.03 1017 10 16.09344 0 0
11:56 am 11:56 Sunny 77 25 68 20 74 74 Calm 30.03 1017 10 16.09344 0 0
12:56 pm 12:56 Mostly Sunny 80 26.7 68 20 67 67 N 5 7 30 1016 10 16.09344 0 0
1:56 pm 13:56 Mostly Sunny 81 27.2 68 20 65 65 N 3 6 30 1016 10 16.09344 0 0
2:56 pm 14:56 Partly Cloudy 84 28.9 67 19.4 57 57 WNW 7 11 30 1016 10 16.09344 0 0
3:56 pm 15:56 Partly Cloudy 84 28.9 66 18.9 55 55 W 7 11 29.97 1015 10 16.09344 0 0
4:56 pm 16:56 Sunny 82 27.8 67 19.4 60 60 WSW 6 9 29.97 1015 10 16.09344 0 0
5:56 pm 17:56 Sunny 83 28.3 68 20 61 61 WSW 6 9 29.97 1015 10 16.09344 0 0
6:56 pm 18:56 Sunny 80 26.7 69 20.6 69 69 WSW 3 6 30 1016 10 16.09344 0 0
7:56 pm 19:56 Clear 73 22.8 68 20 84 84 Calm 30 1016 10 16.09344 0 0
8:56 pm 20:56 Clear 70 21.1 67 19.4 90 90 Calm 30 1016 10 16.09344 0 0
9:56 pm 21:56 Clear 67 19.4 65 18.3 93 93 SSE 3 6 30 1016 10 16.09344 0 0
10:56 pm 22:56 Clear 68 20 65 18.3 90 90 S 3 6 30 1016 10 16.09344 0 0
11:56 pm 23:56 Clear 65 18.3 63 17.2 93 93 Calm 30 1016 10 16.09344 0 0

Powered by AerisWeather